Location: *
(49.0044°N, 9.5056°E)
Time: 15:23:47
(UTC+00:00)

Cosmos 2327 Rocket - Pass Details

Date: 22 September 2019
Orbit: 943 x 1009 km, 83.0° (Epoch: 16 October)

Event Time Altitude Azimuth Distance (km) Brightness Sun altitude
Rises 17:39:06 0° 351° (N) 3,691 7.7 -3.8°
Reaches altitude 10° 17:41:40 10° 354° (N) 2,729 7.0 -4.2°
Maximum altitude 17:47:54 71° 79° (ENE) 1,017 4.5 -5.3°
Drops below altitude 10° 17:54:00 10° 163° (SSE) 2,670 6.6 -6.3°
Sets 17:56:28 0° 166° (SSE) 3,606 7.2 -6.7°
